Theta_e
290 290 291 292 292 291 291 291 292 293 293 294 295 296 297 297 298 298 297 296 294 295 295 297 297 298 298 299 301 300 298 300 303 301 302 303 301 304 306 307 308 309 309 306 306 307 308 311 313 314 312 309 309 309
290 290 292 292 291 290 290 292 292 293 294 294 294 295 297 297 298 298 298 297 296 294 296 296 296 296 296 296 297 299 299 300 302 305 302 303 301 300 305 307 309 310 310 309 307 306 309 310 311 310 309 308 307 307
290 292 292 291 290 290 291 293 294 294 294 294 295 297 297 297 298 298 298 298 296 297 295 295 295 296 297 298 297 299 300 300 299 299 301 302 304 306 305 307 310 306 306 310 310 309 308 307 306 305 305 305 304 305
291 291 291 289 289 292 294 296 296 296 296 296 297 297 299 298 298 298 298 298 297 296 295 295 296 296 296 296 296 299 300 300 300 301 301 302 302 305 304 306 307 307 309 308 309 307 306 304 302 302 301 303 304 302
291 290 290 289 292 294 296 298 298 298 297 297 297 298 299 299 299 298 297 297 297 296 295 296 297 296 297 298 299 300 299 301 300 302 301 301 302 305 305 306 304 302 304 306 305 300 303 299 300 301 301 300 298 298
290 289 288 292 294 296 297 298 298 298 298 298 298 299 299 299 298 297 296 296 297 296 295 295 298 298 300 300 299 300 299 300 302 302 301 302 303 304 305 307 298 298 297 297 300 299 298 297 297 297 296 295 295 295
288 289 292 294 296 297 297 298 298 299 298 298 299 299 299 299 298 296 297 297 297 296 296 297 296 300 302 300 300 300 299 301 302 302 302 301 302 304 303 302 296 294 295 296 299 300 296 296 293 294 295 293 293 290
290 293 295 296 296 297 297 298 298 298 298 299 299 299 299 299 298 297 299 299 296 296 297 298 295 301 301 301 301 301 301 302 301 301 302 303 303 301 298 295 292 292 294 293 294 294 294 293 293 292 291 290 289 287
293 296 296 297 297 298 298 298 298 299 298 298 299 299 299 299 298 298 298 298 296 297 297 298 297 298 302 302 301 301 301 301 300 301 302 301 297 293 292 290 289 289 290 290 292 292 292 291 290 289 288 287 287 284
295 296 298 299 299 298 298 298 298 298 299 299 299 300 296 298 298 298 297 297 297 299 299 299 300 301 301 301 301 301 300 301 302 302 302 296 293 290 289 288 288 288 288 289 289 289 289 288 287 286 285 284 284 283
297 298 298 298 298 298 299 299 299 298 299 299 298 298 298 298 298 298 297 297 298 298 297 299 301 302 302 302 301 301 302 301 303 301 302 298 293 289 287 286 286 286 286 286 286 286 287 286 284 283 281 281 281 281
298 299 299 299 299 299 300 299 300 299 299 299 299 298 298 299 298 298 298 298 297 297 299 298 301 302 300 301 301 301 299 302 302 302 296 290 289 287 286 285 284 284 284 284 284 283 282 283 283 282 281 280 280 280
298 299 300 299 298 298 299 299 299 299 299 299 299 299 298 297 299 299 300 300 299 300 302 302 300 300 301 301 301 300 301 301 300 294 290 288 288 286 285 284 283 282 282 282 281 281 281 281 281 280 280 279 279 279
298 298 298 299 298 299 299 299 299 298 298 297 295 290 296 290 288 290 294 297 297 299 301 300 299 300 300 298 296 301 295 296 297 290 289 285 285 285 284 283 282 281 281 280 280 280 280 280 279 279 279 279 279 279
298 298 298 298 298 298 298 298 298 296 294 293 294 289 286 291 293 295 296 296 297 300 301 300 298 299 295 295 294 294 296 293 290 285 281 285 285 284 283 282 282 281 280 280 279 279 279 279 279 278 278 278 278 278
297 297 298 298 298 298 298 298 297 293 291 291 291 292 293 290 290 293 294 294 296 300 301 300 294 292 292 292 291 288 293 287 283 280 283 284 283 283 283 282 281 281 280 280 279 279 279 279 279 278 278 278 278 277
297 298 298 298 295 295 297 296 293 291 290 290 289 290 291 291 290 290 291 294 297 298 292 293 293 294 294 289 285 282 279 278 283 283 283 283 283 282 282 281 281 281 280 280 280 279 279 279 279 278 278 277 277 276
295 295 295 296 296 294 296 293 290 289 289 289 288 288 288 289 289 290 290 295 295 294 293 291 290 286 282 284 281 281 284 284 284 283 282 282 282 281 281 281 281 280 280 280 280 279 279 279 278 278 277 277 276 275
296 295 294 294 294 294 292 291 290 289 289 288 288 288 288 288 288 288 290 290 291 291 290 288 284 282 281 284 283 283 283 283 282 282 282 282 281 281 281 280 280 280 280 280 279 279 279 279 278 278 278 276 276 275
295 295 294 294 294 293 292 291 290 290 290 289 289 289 289 287 287 287 288 289 289 286 285 283 282 285 285 285 285 284 283 283 282 281 281 280 281 280 280 280 280 280 279 279 279 278 278 278 278 277 277 277 276 275
294 294 294 295 293 292 291 290 290 289 289 288 288 288 287 287 286 285 284 285 284 284 283 283 283 284 285 285 284 284 283 282 282 282 281 281 280 280 280 280 280 279 279 278 278 278 277 277 276 275 275 274 274 273
294 295 293 293 291 291 291 290 290 290 290 289 290 290 289 287 286 284 284 283 283 283 283 282 283 283 283 283 283 284 284 284 283 282 281 280 280 279 279 279 279 279 278 278 277 276 276 275 274 274 273 272 272 272
294 294 292 292 291 291 290 292 292 291 289 290 291 289 287 287 286 284 283 282 281 282 282 282 282 282 282 281 281 281 281 282 281 280 280 280 279 278 278 278 277 277 276 276 275 275 274 274 273 272 272 272 271 271
293 292 293 292 291 289 292 292 292 291 291 290 288 288 286 287 286 283 281 282 281 281 282 281 281 281 281 281 280 280 279 279 279 278 278 278 277 277 276 275 275 275 275 274 274 273 273 272 272 271 271 271 271 271
291 289 291 285 292 286 284 284 287 288 286 286 285 283 283 288 282 280 276 281 281 281 281 281 281 281 280 279 279 279 279 279 278 278 277 277 276 276 275 275 275 274 274 273 273 273 272 271 271 271 271 271 270 270
283 287 288 284 287 287 286 284 283 284 283 282 282 288 288 280 279 280 281 282 281 282 282 282 281 281 280 279 279 278 279 278 278 277 276 276 276 276 276 275 275 274 274 273 272 272 272 271 270 270 270 270 270 270
281 281 287 288 289 290 286 289 288 284 280 281 280 278 275 274 274 280 283 282 282 282 282 282 282 282 281 280 279 279 277 277 277 277 274 274 274 273 273 273 274 273 272 272 270 270 270 270 270 270 269 269 269 269
284 285 281 282 283 283 277 278 277 278 277 284 281 275 274 274 278 282 281 282 282 282 282 282 282 281 280 279 277 276 275 275 274 274 274 274 274 274 273 271 271 271 270 270 270 269 269 269 269 269 269 269 269 268
282 282 282 275 279 279 280 277 277 280 280 282 272 272 278 279 280 280 281 281 281 281 281 281 279 279 278 277 276 275 275 275 275 274 274 274 273 273 272 271 270 270 270 269 269 269 269 269 268 268 268 268 268 268
283 281 279 277 273 275 279 279 278 279 280 279 278 278 278 278 279 280 280 280 280 279 279 279 278 277 277 276 275 274 274 273 273 273 273 273 273 272 271 270 270 269 269 269 269 269 269 268 268 268 268 268 268 268
283 281 279 278 278 279 278 277 278 278 278 277 277 276 276 277 278 278 278 278 278 278 277 277 276 276 276 275 275 274 274 273 273 272 272 271 271 270 270 270 270 270 269 269 269 269 269 269 269 268 268 267 267 267
281 280 278 275 279 279 280 280 278 278 277 277 277 277 277 277 275 276 276 276 276 276 276 276 276 276 275 274 273 273 273 272 272 271 271 271 270 270 270 270 269 269 270 270 269 269 269 269 269 268 268 268 268 267
280 280 280 280 279 280 281 282 281 280 280 279 279 279 278 277 275 275 275 276 276 276 276 276 276 275 274 273 273 273 273 272 271 271 271 270 270 270 270 270 270 270 269 269 269 269 269 269 269 268 268 268 267 267
Wind_Speed
21 19 19 22 25 27 25 21 21 21 23 22 22 19 16 16 16 18 28 33 30 13 19 8 5 5 2 1 2 8 6 3 2 1 2 3 2 3 2 4 3 4 5 4 4 4 9 15 13 4 6 16 18 20
19 19 24 27 28 27 22 21 22 23 24 25 23 22 20 19 20 22 26 31 30 23 7 9 18 23 26 22 13 3 2 1 4 2 1 1 2 3 2 3 2 4 5 3 5 5 7 16 17 16 17 19 18 21
20 24 26 29 27 21 22 21 21 22 22 22 21 21 20 20 20 24 29 27 26 16 21 30 33 22 13 14 12 10 6 5 4 18 3 2 3 2 2 2 4 4 5 2 2 7 13 18 22 21 17 18 13 12
23 25 27 25 22 19 21 22 21 24 24 20 18 17 15 17 20 22 29 28 29 9 4 8 8 15 15 20 22 22 23 12 8 7 2 1 3 3 2 3 2 5 0 4 3 8 14 17 17 15 15 13 8 7
26 27 27 23 22 19 18 12 12 11 12 16 16 13 11 13 14 20 20 22 22 15 5 6 14 20 14 11 21 23 14 14 10 3 1 3 4 2 2 2 4 9 5 3 1 10 12 10 12 9 4 9 8 5
27 27 22 22 18 17 15 14 13 13 12 13 11 13 15 12 20 19 6 21 30 28 2 3 5 9 8 12 24 20 22 16 10 4 3 4 4 1 3 2 5 16 14 16 5 15 18 15 13 12 8 6 5 3
24 21 22 20 18 17 19 18 17 17 18 18 16 14 15 15 25 19 6 4 25 23 4 3 4 4 6 12 15 13 22 9 7 4 4 3 5 6 1 3 9 11 13 21 8 5 11 11 10 11 7 5 5 5
20 20 19 19 21 22 23 23 21 23 23 19 19 17 18 15 26 20 5 5 30 21 5 2 4 3 6 6 4 8 12 10 4 3 3 3 3 3 3 7 11 11 7 15 15 14 12 9 6 7 3 1 2 5
18 17 19 22 23 23 23 25 28 27 31 26 23 20 19 24 17 26 5 10 29 8 6 3 2 2 8 4 5 5 7 2 5 3 3 3 2 3 4 10 11 12 8 8 6 8 6 6 6 4 2 2 3 5
16 18 19 19 19 18 19 18 18 22 28 31 31 13 7 20 20 27 10 16 9 6 6 3 5 2 3 4 3 5 4 2 3 5 5 3 2 10 9 8 7 8 8 8 3 8 5 5 4 4 4 3 4 7
10 12 17 14 11 12 14 19 26 28 31 34 9 6 29 34 15 9 6 6 6 3 6 7 11 3 4 3 3 5 3 3 2 3 3 2 2 3 5 8 7 6 6 6 6 4 4 7 5 5 7 6 8 9
4 9 3 8 9 9 11 21 37 37 21 15 17 34 22 8 5 5 4 4 4 5 6 5 4 5 3 4 3 4 2 2 3 3 3 2 3 7 4 6 6 4 5 4 4 5 5 4 4 5 7 9 10 12
4 10 14 18 17 28 27 35 30 32 36 37 12 5 5 2 3 5 6 3 4 6 8 7 3 3 3 2 4 2 4 3 1 3 2 2 8 5 3 4 5 4 3 3 3 4 5 6 7 7 11 11 12 13
12 18 25 31 32 33 33 28 35 34 10 5 4 4 2 2 0 2 1 2 2 6 16 14 5 3 2 2 1 2 2 1 2 2 2 1 7 5 4 5 5 7 7 8 9 8 9 10 11 11 10 10 11 12
14 12 16 27 29 31 32 31 23 10 4 5 4 3 1 2 1 1 5 5 4 12 11 11 7 4 2 3 2 2 3 2 2 3 2 10 7 3 3 4 5 6 6 7 7 9 10 11 12 13 12 11 11 11
21 31 26 27 27 24 25 18 11 6 6 5 7 4 4 5 5 9 9 5 5 12 9 6 3 3 2 2 4 1 1 3 2 2 12 10 8 6 6 5 5 5 5 7 7 8 8 8 9 10 9 7 6 5
24 17 13 19 20 15 9 5 5 8 6 5 4 12 11 9 8 7 7 5 6 6 2 3 4 0 1 3 2 2 3 3 13 15 11 7 7 7 6 6 6 5 6 7 8 9 9 8 7 6 6 6 5 5
19 18 15 15 14 16 17 9 7 7 7 10 6 10 19 12 10 11 11 8 5 4 3 2 4 5 2 3 2 1 9 16 15 14 12 10 9 7 5 5 5 4 4 5 5 5 4 4 3 3 2 2 3 2
22 19 17 16 11 4 5 6 6 5 6 8 11 12 10 10 16 9 9 16 17 13 8 5 5 2 1 2 8 17 19 18 18 15 12 9 6 5 5 5 4 5 6 6 5 5 6 5 3 3 4 5 6 5
19 16 11 8 5 5 6 6 6 7 4 4 6 8 6 8 8 13 15 14 13 7 8 4 2 3 5 13 15 15 14 14 16 15 12 9 7 7 6 2 3 5 6 5 5 5 5 5 4 4 4 7 8 7
21 17 15 12 13 10 7 5 6 7 8 6 10 4 7 12 8 9 10 10 10 6 4 7 17 20 18 16 13 14 13 11 11 7 12 10 4 5 5 3 4 4 4 3 4 4 4 6 7 7 7 8 8 9
16 13 9 8 7 6 7 6 10 10 5 8 9 4 5 3 3 6 5 12 6 7 6 18 20 18 16 15 14 11 9 9 12 10 8 8 7 6 6 5 5 5 4 4 4 5 6 7 8 9 6 4 3 3
15 10 7 6 6 5 4 4 4 3 4 6 6 3 3 3 3 5 6 5 5 14 13 14 15 14 16 14 12 10 8 9 10 9 8 8 6 4 3 3 4 6 6 5 5 6 7 9 7 5 4 3 1 1
7 5 4 4 5 3 5 3 4 5 5 3 2 3 1 4 6 5 3 3 11 11 11 14 16 18 15 13 12 11 7 5 8 8 5 3 3 2 1 1 3 5 7 7 7 6 5 6 6 7 5 6 4 4
4 6 4 4 4 4 3 2 2 3 2 2 3 1 1 3 3 3 2 7 15 15 16 16 14 12 13 12 9 8 9 5 3 6 8 6 4 3 4 4 4 4 4 6 7 6 6 6 5 6 6 6 6 7
6 6 3 2 2 4 3 3 3 4 3 3 1 4 4 3 3 2 4 17 19 16 14 15 16 14 10 7 12 9 7 6 3 2 3 5 6 8 8 9 9 8 8 7 8 9 8 6 5 6 7 7 6 6
4 2 4 5 2 6 5 7 8 5 3 4 3 2 3 4 2 1 14 20 21 18 14 12 12 9 8 10 8 5 7 7 5 4 2 1 2 4 6 8 9 10 10 9 8 7 9 10 9 8 7 8 8 8
4 5 4 7 8 10 4 3 3 2 1 3 5 4 4 6 3 6 14 21 19 17 14 13 11 9 8 6 6 7 7 7 5 4 3 3 1 1 4 4 4 5 7 7 5 6 7 9 11 11 11 10 9 10
5 4 6 6 7 8 7 3 1 3 3 2 4 2 3 3 9 22 25 19 16 14 14 13 12 9 8 9 8 7 5 4 4 3 3 5 5 6 8 8 6 5 5 5 5 3 2 3 4 6 7 6 6 7
4 5 6 5 4 4 7 4 6 7 8 13 12 24 27 26 22 17 15 12 10 10 10 9 9 7 6 6 5 4 2 3 5 6 8 7 7 8 8 7 7 6 6 7 7 6 5 6 6 5 7 8 9 10
5 5 6 6 5 14 20 22 21 19 22 27 28 23 18 17 17 12 9 7 7 10 14 13 11 9 5 5 4 3 1 2 3 3 4 4 5 5 5 6 6 6 5 5 5 5 5 5 6 7 8 9 10 11
5 4 7 4 5 18 8 9 13 18 14 14 10 17 14 6 5 6 12 10 7 8 8 7 5 4 3 1 2 2 3 3 3 3 3 3 4 4 3 4 3 3 4 5 6 6 6 6 7 7 8 10 11 12
15 17 18 12 6 7 6 6 5 6 5 5 3 3 3 3 4 6 12 13 10 5 4 5 4 3 3 3 2 1 1 2 2 2 2 2 2 2 2 3 3 4 5 6 6 7 8 9 10 11 12 12 13 14
Wind_Direction
253 247 263 270 268 272 275 265 270 273 271 268 264 258 257 251 248 233 225 226 212 229 247 237 253 206 173 204 335 326 350 13 285 215 186 234 165 255 301 250 222 199 175 208 174 201 257 349 321 350 121 95 87 80
245 256 267 269 275 275 269 270 269 269 268 265 257 258 259 253 248 225 221 227 220 216 245 226 245 253 254 256 268 269 284 254 302 276 271 301 351 358 302 267 106 240 200 222 168 186 77 56 73 67 92 89 84 85
256 266 267 272 274 270 273 272 272 269 265 258 254 257 251 245 242 218 221 223 190 212 248 254 249 241 246 236 239 235 233 202 286 313 288 336 257 213 281 299 313 303 271 330 124 109 86 70 64 55 55 72 68 65
262 266 270 279 272 266 274 275 271 265 258 250 244 234 244 232 228 215 213 225 211 184 223 273 260 249 259 242 240 233 246 244 301 308 321 286 266 205 263 293 279 301 321 315 85 73 87 71 63 54 38 80 78 69
263 267 272 271 275 276 278 276 266 258 223 219 222 228 212 219 205 198 214 228 230 186 207 267 280 264 238 203 208 218 230 243 238 221 226 257 252 310 268 177 20 348 330 30 84 318 75 56 75 72 58 62 64 55
265 271 268 275 272 271 269 259 248 230 216 211 218 214 220 217 191 172 166 217 215 195 334 330 303 264 222 254 215 229 217 232 223 195 234 269 266 136 287 66 24 30 27 34 3 92 89 87 69 73 91 69 59 17
268 267 275 269 260 262 254 248 240 231 230 225 218 218 213 208 187 167 174 211 194 192 181 275 289 277 288 198 194 207 203 210 200 209 228 246 276 183 319 35 37 17 35 37 71 86 65 62 64 88 87 66 46 54
268 272 267 260 258 259 253 252 242 236 225 221 215 212 204 201 186 181 142 186 178 171 188 248 264 311 160 120 113 169 174 195 180 220 242 238 265 79 76 54 42 28 49 40 45 68 98 108 89 86 94 102 65 61
270 271 267 267 266 260 253 241 242 239 220 220 193 188 185 176 168 185 124 147 170 170 183 208 218 228 175 121 130 117 158 146 202 209 222 205 35 52 72 65 44 35 39 8 42 57 78 79 65 61 70 64 84 92
269 273 277 271 269 258 237 223 207 197 188 176 170 167 152 158 169 164 127 167 187 219 226 221 216 139 194 124 142 123 167 197 201 215 185 73 81 89 73 59 39 24 19 8 88 50 64 95 80 64 81 117 143 143
279 297 289 264 235 224 220 220 203 189 176 157 136 129 140 147 139 163 156 178 177 216 211 217 195 145 199 147 141 204 168 175 214 222 162 90 101 92 71 50 37 27 29 35 42 63 93 140 127 111 117 127 137 146
0 327 126 151 164 160 168 161 153 153 149 137 134 129 125 136 152 155 169 155 192 213 186 168 132 133 136 157 133 163 175 178 233 151 78 96 93 110 77 45 31 29 22 23 39 67 78 99 99 115 122 125 133 138
132 130 125 133 126 138 134 124 131 137 124 126 117 121 145 134 149 187 156 178 184 171 166 141 114 118 122 87 105 146 180 208 83 52 69 75 111 111 93 40 45 44 7 26 66 88 88 98 105 114 119 119 124 126
148 144 134 133 130 126 128 130 135 127 99 77 102 69 56 30 102 184 225 95 105 147 140 132 111 103 109 62 350 110 242 83 50 90 169 140 142 125 80 59 60 71 72 80 85 97 105 112 116 119 120 127 131 126
153 152 140 142 149 131 133 131 131 131 92 80 65 87 89 208 266 205 110 105 92 137 132 112 78 89 42 82 27 81 44 57 47 189 187 136 151 145 120 104 89 84 89 96 98 98 102 108 113 113 115 120 124 125
136 122 108 105 112 132 138 124 136 88 67 64 48 65 60 72 22 57 79 75 87 118 100 76 100 67 17 110 58 43 91 203 209 156 147 151 146 134 122 109 100 97 96 100 103 105 109 114 114 112 114 113 112 110
157 153 138 117 114 111 103 111 77 60 66 55 37 57 86 79 54 54 46 31 96 92 99 79 69 194 96 59 54 34 169 194 123 137 142 145 136 128 121 115 111 109 108 107 108 107 107 106 106 111 114 113 107 83
138 141 138 123 122 114 90 51 70 68 64 56 74 63 72 70 57 51 40 79 96 91 70 91 84 56 89 131 237 196 106 129 131 132 130 130 134 138 145 140 129 131 130 125 119 118 112 104 105 108 111 112 100 56
143 142 146 154 166 106 78 59 61 88 74 85 99 85 77 75 66 73 95 91 99 102 95 62 68 80 174 112 127 131 139 142 138 136 132 136 150 149 149 151 162 167 159 165 167 166 176 182 194 221 246 224 227 267
137 131 129 135 153 89 83 68 70 89 95 95 94 66 68 79 64 63 76 75 71 57 51 45 51 53 101 130 145 145 148 151 147 137 139 142 142 156 144 118 191 204 209 210 201 205 220 233 250 271 264 244 250 261
137 136 134 116 72 71 85 98 78 103 116 100 122 73 84 72 51 41 38 35 60 38 68 95 103 110 114 123 135 137 145 152 151 140 152 152 153 183 173 159 204 189 181 233 252 207 241 293 305 300 293 284 283 280
134 142 111 71 77 73 75 56 111 117 90 142 162 100 94 69 50 40 53 48 55 40 102 124 120 122 120 115 116 127 124 157 176 152 151 158 158 163 164 188 214 208 225 242 251 262 279 290 298 304 307 337 341 296
127 105 64 57 84 74 125 136 90 101 108 165 128 93 73 86 102 74 77 66 68 123 130 127 128 132 126 120 121 115 129 151 145 148 153 163 176 199 228 232 251 264 261 263 284 298 298 304 290 279 267 240 282 149
87 71 66 68 77 110 134 119 101 97 109 129 80 91 97 125 120 69 77 80 141 147 149 143 144 134 131 134 128 123 123 148 145 142 152 156 190 231 271 289 277 276 274 276 285 304 322 316 291 248 258 271 257 233
91 18 62 30 109 95 87 46 73 82 112 113 94 77 223 142 83 82 143 149 163 153 144 147 148 144 137 150 149 155 169 164 174 187 170 206 229 222 243 257 270 292 293 281 283 279 297 328 308 284 278 270 269 267
74 21 59 168 164 107 160 116 143 136 101 78 157 129 148 81 74 125 161 166 169 168 172 182 186 172 163 164 175 184 189 198 210 220 210 235 248 249 259 264 275 277 291 295 298 282 277 266 281 295 296 271 261 267
74 321 51 36 88 99 81 75 80 89 100 142 181 99 84 80 173 216 143 167 169 171 169 166 181 192 183 176 180 189 202 209 224 258 253 231 280 265 262 265 267 276 284 294 305 282 266 272 279 289 295 294 290 289
70 36 89 9 63 42 88 51 57 92 168 62 94 57 118 158 179 140 152 161 173 173 177 179 182 186 177 185 181 173 178 193 202 214 234 235 289 5 4 358 306 284 282 291 296 279 269 266 269 279 284 285 291 296
60 78 86 41 52 46 39 52 52 41 10 71 107 121 116 80 139 142 150 161 167 176 174 170 166 179 175 168 169 177 195 222 244 269 281 296 303 320 337 351 349 331 316 302 298 300 295 308 292 276 270 268 273 282
81 51 90 60 64 32 27 31 80 80 105 109 101 112 103 107 121 138 149 161 176 185 184 182 177 168 162 159 167 174 187 222 241 260 273 281 289 306 320 326 326 326 331 324 316 318 315 301 298 288 282 289 302 311
91 88 79 67 81 106 102 98 97 98 104 107 123 110 109 113 129 138 144 140 144 158 163 162 160 159 156 144 137 147 223 310 309 293 296 303 312 310 309 313 317 327 327 322 326 325 318 314 312 310 308 308 309 307
54 87 125 106 138 151 115 76 79 94 95 102 96 116 109 95 96 142 153 160 174 175 175 186 200 195 187 244 318 308 302 310 313 324 327 316 313 330 353 6 3 353 347 346 345 341 336 331 326 319 314 314 314 313
97 102 104 100 126 177 185 140 105 115 102 124 148 147 91 110 127 159 176 184 188 186 161 159 162 175 191 202 215 248 292 303 309 318 326 339 355 18 31 30 14 359 347 342 341 341 337 330 324 320 317 317 317 315